{"data":{"norad_id":65543,"intl_designator":"2025-200Z","name":"STARLINK-35105","alt_names":[],"object_type":"PAYLOAD","status":"ACTIVE","operator":null,"country":"US","launch_date":"2025-09-06","launch_site_code":"AFWTR","launch_vehicle":null,"mission":null,"orbit_class":"UNKNOWN","rcs_meters":null,"size_class":null,"mass_kg":null,"dimensions":null,"purposes":["comms"],"wikipedia_slug":null,"has_3d_model":false,"image_url":null,"decayed_at":null,"tle_current":{"epoch":"2026-05-25T04:29:29.925024Z","epoch_age_seconds":61929,"freshness":"FRESH","line1":"1 65543U 25200Z   26145.18715191 -.00004257  00000+0 -29123-3 0  9992","line2":"2 65543  97.4533 214.8679 0001838 141.9797 218.1560 15.05639118 40647","mean_motion":15.05639118,"eccentricity":0.0001838,"inclination_deg":97.4533,"raan_deg":214.8679,"arg_perigee_deg":141.9797,"mean_anomaly_deg":218.156,"bstar":-0.00029123,"rev_number":4064,"period_min":95.640448151534,"perigee_km":548.2712258304,"apogee_km":550.81784156219,"semimajor_km":6927.6815336963,"source":"CELESTRAK","updated_at":"2026-05-25T13:38:20.851387Z"}}}